EGNV

Durham Tees Valley Airport

Airport
ICAO code
EGNV
IATA Code
MME
Summary
ICAO Region
EUR
ICAO Territory
Location

Middleton St. George, Darlington, England

Serving
Middlesbrough
Elevation
120 ft
Coordinates
54° 30' 33" N , 1° 25' 45" W
KCC
Metar
EGNV 221720Z 25013KT 9999 FEW043 19/09 Q1012

Description

Durham Tees Valley Airport is a small international airport located near Darlington, North East England. About 16 km southwest of Middlesbrough and 39 km south of Durham. The airport serves County Durham, Teesside and parts of North Yorkshire. The airport is still widely recognised by its previous name, Teesside International Airport.

Climatology

Temperate Marine climate/Oceanic climate (Köppen climate classification Cfb). Moderately cool summer and comparatively warm winter with a temperature range of only 14°C. Prevailing south-westerly winds from the Atlantic Ocean.

Runways

Designator Length Width Surface Rops
5/23 2291 46 ASP Yes/Yes

Airport map

Aerial View

SKYbrary Partners:

Safety knowledge contributed by: